TimeEDT,TemperatureF,Dew PointF,Humidity,Sea Level PressureIn,VisibilityMPH,Wind Direction,Wind SpeedMPH,Gust SpeedMPH,PrecipitationIn,Events,Conditions,WindDirDegrees,DateUTC
12:15 AM,48.2,39.2,71,30.33,10.0,NE,6.9,-,N/A,,Clear,50,2013-10-10 04:15:00
12:35 AM,48.2,39.2,71,30.33,10.0,ENE,6.9,-,N/A,,Clear,60,2013-10-10 04:35:00
12:55 AM,48.2,39.2,71,30.34,10.0,NE,5.8,-,N/A,,Clear,50,2013-10-10 04:55:00
1:15 AM,48.2,39.2,71,30.33,10.0,NE,3.5,-,N/A,,Clear,50,2013-10-10 05:15:00
1:35 AM,48.2,39.2,71,30.32,10.0,NE,6.9,-,N/A,,Clear,40,2013-10-10 05:35:00
1:55 AM,48.2,39.2,71,30.32,10.0,NE,6.9,-,N/A,,Clear,50,2013-10-10 05:55:00
2:15 AM,48.2,39.2,71,30.31,10.0,NE,8.1,16.1,N/A,,Clear,40,2013-10-10 06:15:00
2:35 AM,48.2,39.2,71,30.30,10.0,NE,10.4,-,N/A,,Clear,50,2013-10-10 06:35:00
2:55 AM,46.4,39.2,76,30.29,10.0,NE,6.9,-,N/A,,Clear,40,2013-10-10 06:55:00
3:15 AM,46.4,39.2,76,30.29,10.0,NE,8.1,-,N/A,,Clear,40,2013-10-10 07:15:00
3:35 AM,46.4,41.0,81,30.30,10.0,NE,6.9,-,N/A,,Clear,50,2013-10-10 07:35:00
3:55 AM,46.4,39.2,76,30.29,10.0,NE,8.1,-,N/A,,Clear,40,2013-10-10 07:55:00
4:15 AM,46.4,41.0,81,30.29,10.0,NE,6.9,-,N/A,,Clear,40,2013-10-10 08:15:00
4:35 AM,46.4,41.0,81,30.29,10.0,NE,5.8,-,N/A,,Clear,50,2013-10-10 08:35:00
4:55 AM,48.2,41.0,76,30.30,10.0,NE,8.1,-,N/A,,Clear,40,2013-10-10 08:55:00
5:15 AM,48.2,41.0,76,30.30,10.0,NNE,8.1,-,N/A,,Clear,30,2013-10-10 09:15:00
5:35 AM,46.4,41.0,81,30.30,10.0,NNE,8.1,-,N/A,,Clear,30,2013-10-10 09:35:00
5:55 AM,46.4,41.0,81,30.30,10.0,NNE,9.2,-,N/A,,Clear,30,2013-10-10 09:55:00
6:45 AM,46.4,41.0,81,30.30,10.0,NE,9.2,-,N/A,,Clear,40,2013-10-10 10:45:00
7:45 AM,48.2,41.0,76,30.29,10.0,ENE,6.9,-,N/A,,Clear,60,2013-10-10 11:45:00
8:45 AM,48.2,42.8,82,30.29,10.0,ENE,5.8,-,N/A,,Clear,60,2013-10-10 12:45:00
9:45 AM,51.8,42.8,71,30.29,10.0,ENE,5.8,-,N/A,,Mostly Cloudy,60,2013-10-10 13:45:00
10:45 AM,51.8,42.8,71,30.26,10.0,ENE,6.9,-,N/A,,Overcast,60,2013-10-10 14:45:00
11:45 AM,53.6,44.6,72,30.26,10.0,ENE,8.1,-,N/A,,Overcast,60,2013-10-10 15:45:00
12:45 PM,55.4,46.4,72,30.24,10.0,NE,10.4,-,N/A,,Scattered Clouds,50,2013-10-10 16:45:00
1:45 PM,55.4,46.4,72,30.22,10.0,ENE,9.2,-,N/A,,Mostly Cloudy,60,2013-10-10 17:45:00
3:45 PM,57.2,48.2,72,30.19,10.0,NE,6.9,-,N/A,,Overcast,50,2013-10-10 19:45:00
4:45 PM,55.4,46.4,72,30.17,10.0,NE,9.2,16.1,N/A,,Overcast,50,2013-10-10 20:45:00
5:52 PM,55.4,46.4,72,30.17,10.0,NE,8.1,16.1,N/A,,Overcast,50,2013-10-10 21:52:00
6:46 PM,55.4,46.4,72,30.18,10.0,NE,11.5,-,N/A,,Overcast,50,2013-10-10 22:46:00
7:45 PM,55.4,46.4,72,30.18,10.0,ENE,5.8,16.1,N/A,,Overcast,60,2013-10-10 23:45:00
9:15 PM,55.4,46.4,72,30.17,10.0,NE,11.5,16.1,N/A,,Overcast,50,2013-10-11 01:15:00
9:35 PM,55.4,46.4,72,30.16,10.0,NE,11.5,16.1,N/A,,Overcast,50,2013-10-11 01:35:00
9:55 PM,55.4,46.4,72,30.17,10.0,NE,12.7,18.4,N/A,,Overcast,50,2013-10-11 01:55:00
10:15 PM,55.4,46.4,72,30.17,10.0,NE,10.4,18.4,N/A,,Overcast,40,2013-10-11 02:15:00
10:35 PM,55.4,46.4,72,30.17,10.0,NE,9.2,-,N/A,,Overcast,40,2013-10-11 02:35:00
10:55 PM,55.4,46.4,72,30.16,10.0,NE,9.2,-,N/A,,Overcast,50,2013-10-11 02:55:00
11:15 PM,55.4,46.4,72,30.15,10.0,NE,10.4,17.3,N/A,,Mostly Cloudy,40,2013-10-11 03:15:00
11:35 PM,55.4,46.4,72,30.14,10.0,NE,10.4,-,N/A,,Mostly Cloudy,40,2013-10-11 03:35:00
11:55 PM,53.6,46.4,77,30.14,10.0,NE,11.5,17.3,N/A,,Overcast,40,2013-10-11 03:55:00